Location: Home
(42.5358°N, 72.7383°W)
Time: 05:50:42
(UTC-05:00)

Courier 1B Rocket - Pass Details

Date: 08 December 2021
Orbit: 920 x 1202 km, 28.2° (Epoch: 25 January)

Event Time Altitude Azimuth Distance (km) Brightness Sun altitude
Rises 20:23:23 0° 225° (SW) 3,838 8.5 -44.4°
Enters shadow 20:25:51 - 215° (SW) 3,138 7.8 -44.8°
Reaches altitude 10° 20:27:06 10° 208° (SSW) 2,827 - -45.0°
Maximum altitude 20:31:31 18° 167° (SSE) 2,216 - -45.8°
Drops below altitude 10° 20:35:47 10° 126° (SE) 2,705 - -46.6°
Sets 20:39:13 0° 108° (ESE) 3,612 - -47.2°
